Location: La Coruña
(43.3623°N, 8.4115°W)
Time: 03:53:53
(UTC+01:00)

STARLINK-1103 - Pass Details

Date: 24 January 2020
Orbit: 548 x 551 km, 53.0° (Epoch: 28 February)

Event Time Altitude Azimuth Distance (km) Brightness Sun altitude
Rises 19:59:18 0° 298° (WNW) 2,725 8.0 -15.5°
Reaches altitude 10° 20:01:56 10° 314° (NW) 1,831 6.7 -15.9°
Maximum altitude 20:05:13 22° 6° (N) 1,234 5.2 -16.5°
Enters shadow 20:06:15 20° 28° (NNE) 1,305 5.2 -16.7°
